OK3MS-5 Weather Reports


Display with metric or nautical units.
time (UTC)temp
F
wind
direction
speed
MPH
gust
MPH
rain 1hr
in
rain 24hr
in
rain mn
in
humidity
%
barometer
mb
20260502181503 66 138 0.0 0.0 0.00 0.00 0.00 36 1017.2
20260502181003 66 138 0.0 0.0 0.00 0.00 0.00 35 1017.1
20260502180505 67 138 0.0 0.0 0.00 0.00 0.00 33 1017.1
20260502170506 73 120 0.0 4.0 0.00 0.00 0.00 27 1016.4
20260502164003 74 28 0.0 1.0 0.00 0.00 0.00 28 1016.3
20260502163503 74 28 0.0 2.0 0.00 0.00 0.00 27 1016.4
20260502163004 74 60 2.0 5.0 0.00 0.00 0.00 26 1016.5
20260502162503 74 22 0.0 5.0 0.00 0.00 0.00 27 1016.6
20260502162008 74 18 0.0 3.0 0.00 0.00 0.00 29 1016.7
20260502161503 73 22 2.0 2.0 0.00 0.00 0.00 28 1016.9
20260502161005 73 18 2.0 6.0 0.00 0.00 0.00 27 1016.8
20260502160504 75 106 2.0 3.0 0.00 0.00 0.00 28 1016.6
20260502152005 75 84 0.0 5.0 0.00 0.00 0.00 26 1017.3
20260502151503 75 48 5.0 6.0 0.00 0.00 0.00 26 1017.0
20260502151006 75 30 0.0 6.0 0.00 0.00 0.00 27 1017.2
20260502150504 76 47 0.0 2.0 0.00 0.00 0.00 25 1017.3
20260502130506 72 12 5.0 6.0 0.00 0.00 0.00 29 1018.8
20260502123504 76 18 2.0 2.0 0.00 0.00 0.00 26 1018.8
20260502123004 75 18 0.0 6.0 0.00 0.00 0.00 27 1018.9
20260502122503 74 194 0.0 1.0 0.00 0.00 0.00 27 1019.0
20260502122003 73 194 0.0 2.0 0.00 0.00 0.00 27 1019.4
20260502121503 72 194 3.0 4.0 0.00 0.00 0.00 29 1019.6
20260502121003 73 162 3.0 3.0 0.00 0.00 0.00 28 1019.4
20260502120505 72 162 1.0 4.0 0.00 0.00 0.00 29 1019.5
20260502115503 72 160 0.0 6.0 0.00 0.00 0.00 28 1019.7
20260502115002 72 129 3.0 8.0 0.00 0.00 0.00 29 1019.7
20260502114003 72 125 0.0 6.0 0.00 0.00 0.00 25 1019.9
20260502113503 73 124 1.0 7.0 0.00 0.00 0.00 26 1019.9
20260502113002 74 276 0.0 2.0 0.00 0.00 0.00 27 1019.8
20260502112506 72 270 1.0 1.0 0.00 0.00 0.00 29 1020.1
20260502112002 71 270 2.0 3.0 0.00 0.00 0.00 32 1020.3
20260502111502 71 298 1.0 3.0 0.00 0.00 0.00 32 1020.4
20260502111007 70 298 0.0 2.0 0.00 0.00 0.00 31 1020.5
20260502110505 70 344 2.0 5.0 0.00 0.00 0.00 31 1020.6
20260502110004 69 157 3.0 6.0 0.00 0.00 0.00 33 1020.7
20260502105503 69 138 6.0 11.0 0.00 0.00 0.00 32 1020.8
20260502105004 69 138 3.0 9.0 0.00 0.00 0.00 32 1020.8
20260502104505 71 112 6.0 7.0 0.00 0.00 0.00 32 1020.6
20260502104004 71 30 0.0 4.0 0.00 0.00 0.00 33 1020.7
20260502103504 71 98 0.0 2.0 0.00 0.00 0.00 32 1020.7
20260502103004 70 90 0.0 2.0 0.00 0.00 0.00 33 1021.1
20260502102503 70 94 2.0 8.0 0.00 0.00 0.00 33 1021.2
20260502102002 70 142 5.0 5.0 0.00 0.00 0.00 33 1021.2
20260502101502 69 153 2.0 8.0 0.00 0.00 0.00 34 1021.3
20260502101004 69 187 1.0 2.0 0.00 0.00 0.00 34 1021.4
20260502100503 69 144 1.0 2.0 0.00 0.00 0.00 35 1021.4
20260502091503 67 120 0.0 6.0 0.00 0.00 0.00 39 1022.2
20260502091002 67 116 0.0 5.0 0.00 0.00 0.00 40 1022.2
20260502090503 67 138 4.0 4.0 0.00 0.00 0.00 40 1022.4
20260502071502 57 0 0.0 1.0 0.00 0.00 0.00 59 1024.4
20260502071002 56 0 0.0 0.0 0.00 0.00 0.00 62 1024.5
20260502070504 55 0 0.0 0.0 0.00 0.00 0.00 63 1024.5
20260502070002 55 0 0.0 0.0 0.00 0.00 0.00 63 1024.5
20260502065504 55 0 0.0 0.0 0.00 0.00 0.00 63 1024.7
20260502065002 54 0 0.0 0.0 0.00 0.00 0.00 63 1024.8
20260502064502 54 0 0.0 0.0 0.00 0.00 0.00 65 1024.7
20260502064002 53 0 0.0 1.0 0.00 0.00 0.00 65 1024.9
20260502063503 53 0 0.0 1.0 0.00 0.00 0.00 66 1024.9
20260502063002 52 0 0.0 1.0 0.00 0.00 0.00 66 1025.0
20260502062502 52 0 1.0 1.0 0.00 0.00 0.00 67 1025.1
20260502062002 52 0 0.0 1.0 0.00 0.00 0.00 68 1025.1
20260502061504 52 0 2.0 2.0 0.00 0.00 0.00 66 1025.1
20260502061004 52 0 0.0 0.0 0.00 0.00 0.00 66 1025.1
20260502060503 50 0 0.0 0.0 0.00 0.00 0.00 67 1025.3
20260502060002 49 0 0.0 0.0 0.00 0.00 0.00 70 1025.4
20260502055502 50 0 0.0 0.0 0.00 0.00 0.00 70 1025.3
20260502055004 50 0 0.0 0.0 0.00 0.00 0.00 68 1025.3
20260502054503 49 0 0.0 0.0 0.00 0.00 0.00 71 1025.4
20260502054004 48 0 0.0 0.0 0.00 0.00 0.00 75 1025.5
20260502053502 47 0 0.0 0.0 0.00 0.00 0.00 76 1025.6
20260502053002 47 0 0.0 0.0 0.00 0.00 0.00 78 1025.8
20260502052509 46 0 0.0 0.0 0.00 0.00 0.00 81 1025.9
20260502052003 45 0 0.0 0.0 0.00 0.00 0.00 81 1026.0
20260502051504 44 0 0.0 0.0 0.00 0.00 0.00 83 1026.0
20260502051002 43 0 0.0 0.0 0.00 0.00 0.00 86 1026.1
20260502050502 43 0 0.0 0.0 0.00 0.00 0.00 86 1026.2
20260502050003 42 0 0.0 0.0 0.00 0.00 0.00 87 1026.4
20260502045509 41 0 0.0 0.0 0.00 0.00 0.00 87 1026.4
20260502045002 40 0 0.0 0.0 0.00 0.00 0.00 88 1026.5
20260502044510 39 0 0.0 0.0 0.00 0.00 0.00 89 1026.5
20260502044002 38 0 0.0 0.0 0.00 0.00 0.00 92 1026.6
20260502043504 37 0 0.0 0.0 0.00 0.00 0.00 94 1026.8
20260502043003 36 0 0.0 0.0 0.00 0.00 0.00 96 1026.8
20260502042504 36 0 0.0 0.0 0.00 0.00 0.00 97 1026.9
20260502042002 36 0 0.0 0.0 0.00 0.00 0.00 97 1026.9
20260502041502 36 0 0.0 0.0 0.00 0.00 0.00 97 1026.8
20260502041002 36 0 0.0 0.0 0.00 0.00 0.00 97 1026.8
20260502040503 36 0 0.0 0.0 0.00 0.00 0.00 97 1026.7
20260502040002 36 0 0.0 0.0 0.00 0.00 0.00 96 1026.7
20260502035502 36 0 0.0 0.0 0.00 0.00 0.00 96 1026.6
20260502035002 36 0 0.0 0.0 0.00 0.00 0.00 95 1026.6
20260502034502 36 0 0.0 0.0 0.00 0.00 0.00 94 1026.7
20260502034004 36 0 0.0 0.0 0.00 0.00 0.00 94 1026.9
20260502033504 36 0 0.0 0.0 0.00 0.00 0.00 95 1026.9
20260502033010 36 0 0.0 0.0 0.00 0.00 0.00 95 1026.8
20260502032504 36 0 0.0 0.0 0.00 0.00 0.00 95 1026.8
20260502032008 36 0 0.0 0.0 0.00 0.00 0.00 94 1026.8
20260502031502 37 0 0.0 0.0 0.00 0.00 0.00 94 1026.7
20260502031009 37 0 0.0 0.0 0.00 0.00 0.00 94 1026.7
20260502030503 37 0 0.0 0.0 0.00 0.00 0.00 94 1026.6
20260502030008 37 0 0.0 0.0 0.00 0.00 0.00 93 1026.7
20260502025503 38 0 0.0 0.0 0.00 0.00 0.00 94 1026.6
20260502025008 38 0 0.0 0.0 0.00 0.00 0.00 93 1026.6
20260502024502 39 0 0.0 0.0 0.00 0.00 0.00 93 1026.5
20260502024003 39 0 0.0 0.0 0.00 0.00 0.00 91 1026.4
20260502023502 39 0 0.0 0.0 0.00 0.00 0.00 91 1026.5
20260502023003 39 0 0.0 0.0 0.00 0.00 0.00 92 1026.6
20260502022503 39 0 0.0 0.0 0.00 0.00 0.00 91 1026.6
20260502022003 39 0 0.0 0.0 0.00 0.00 0.00 91 1026.5
20260502021503 39 0 0.0 0.0 0.00 0.00 0.00 92 1026.5
20260502021004 39 0 0.0 0.0 0.00 0.00 0.00 91 1026.6
20260502020504 38 0 0.0 0.0 0.00 0.00 0.00 91 1026.7
20260502020002 38 0 0.0 0.0 0.00 0.00 0.00 91 1026.6
20260502015509 38 0 0.0 0.0 0.00 0.00 0.00 91 1026.7
20260502015002 39 0 0.0 0.0 0.00 0.00 0.00 92 1026.8
20260502014509 39 0 0.0 0.0 0.00 0.00 0.00 91 1026.8
20260502014002 38 0 0.0 0.0 0.00 0.00 0.00 92 1026.7
20260502013509 38 0 0.0 0.0 0.00 0.00 0.00 92 1027.0
20260502013002 38 0 0.0 0.0 0.00 0.00 0.00 93 1027.1
20260502012508 38 0 0.0 0.0 0.00 0.00 0.00 93 1027.0
20260502012002 39 0 0.0 0.0 0.00 0.00 0.00 93 1027.0
20260502011510 39 0 0.0 0.0 0.00 0.00 0.00 92 1027.1
20260502011002 38 0 0.0 0.0 0.00 0.00 0.00 93 1027.1
20260502010504 38 0 0.0 0.0 0.00 0.00 0.00 93 1027.1
20260502010010 39 0 0.0 0.0 0.00 0.00 0.00 92 1027.1
20260502005506 39 0 0.0 0.0 0.00 0.00 0.00 93 1027.1
20260502005008 39 0 0.0 0.0 0.00 0.00 0.00 91 1027.0
20260502004503 39 0 0.0 0.0 0.00 0.00 0.00 89 1027.0
20260502004011 40 0 0.0 0.0 0.00 0.00 0.00 88 1027.0
20260502003502 40 0 0.0 0.0 0.00 0.00 0.00 87 1027.0
20260502003008 40 0 0.0 0.0 0.00 0.00 0.00 87 1027.0
20260502002502 40 0 0.0 0.0 0.00 0.00 0.00 88 1027.0
20260502002003 40 0 0.0 0.0 0.00 0.00 0.00 88 1027.1
20260502001502 40 0 0.0 0.0 0.00 0.00 0.00 88 1027.1
20260502001004 40 0 0.0 0.0 0.00 0.00 0.00 89 1027.2
20260502000504 40 0 0.0 0.0 0.00 0.00 0.00 88 1027.1
20260502000002 40 0 0.0 0.0 0.00 0.00 0.00 88 1027.1
20260501235503 41 0 0.0 0.0 0.00 0.00 0.00 88 1026.9
20260501235002 40 0 0.0 0.0 0.00 0.00 0.00 88 1027.0
20260501234502 41 0 0.0 0.0 0.00 0.00 0.00 86 1027.1
20260501234002 41 0 0.0 0.0 0.00 0.00 0.00 87 1027.0
20260501233502 42 0 0.0 0.0 0.00 0.00 0.00 84 1027.1
20260501233002 43 0 0.0 0.0 0.00 0.00 0.00 83 1026.9
20260501232502 43 0 0.0 0.0 0.00 0.00 0.00 82 1026.7
20260501232002 43 0 0.0 0.0 0.00 0.00 0.00 82 1026.8
20260501231507 43 0 0.0 0.0 0.00 0.00 0.00 81 1026.8
20260501231004 42 0 0.0 0.0 0.00 0.00 0.00 83 1026.9
20260501230508 43 0 0.0 0.0 0.00 0.00 0.00 83 1026.9
20260501230002 43 0 0.0 0.0 0.00 0.00 0.00 84 1026.9
20260501225506 43 0 0.0 0.0 0.00 0.00 0.00 83 1026.8
20260501225003 43 0 0.0 0.0 0.00 0.00 0.00 82 1027.0
20260501224502 44 0 0.0 0.0 0.00 0.00 0.00 81 1026.9
20260501224002 44 0 0.0 0.0 0.00 0.00 0.00 78 1026.8
20260501223504 43 0 0.0 0.0 0.00 0.00 0.00 80 1026.9
20260501223003 44 0 0.0 0.0 0.00 0.00 0.00 80 1026.9
20260501222502 44 0 0.0 0.0 0.00 0.00 0.00 80 1026.9
20260501222002 44 0 0.0 0.0 0.00 0.00 0.00 80 1026.8
20260501221507 44 0 0.0 0.0 0.00 0.00 0.00 80 1026.8
20260501221002 44 0 0.0 0.0 0.00 0.00 0.00 81 1026.7
20260501220503 45 0 0.0 0.0 0.00 0.00 0.00 80 1026.7
20260501220010 45 0 0.0 0.0 0.00 0.00 0.00 77 1026.8
20260501215501 44 0 0.0 0.0 0.00 0.00 0.00 80 1026.8
20260501215007 44 0 0.0 0.0 0.00 0.00 0.00 79 1026.8
20260501214503 44 0 0.0 0.0 0.00 0.00 0.00 80 1026.9
20260501214005 45 0 0.0 0.0 0.00 0.00 0.00 81 1026.8
20260501213502 46 0 0.0 0.0 0.00 0.00 0.00 73 1026.6
20260501213002 46 0 0.0 0.0 0.00 0.00 0.00 73 1026.5
20260501212501 46 0 0.0 0.0 0.00 0.00 0.00 75 1026.5
20260501212002 46 0 0.0 0.0 0.00 0.00 0.00 73 1026.5
20260501211503 46 0 0.0 0.0 0.00 0.00 0.00 76 1026.5
20260501211002 46 0 0.0 0.0 0.00 0.00 0.00 74 1026.5
20260501210503 47 0 0.0 0.0 0.00 0.00 0.00 77 1026.4
20260501210003 47 0 0.0 0.0 0.00 0.00 0.00 78 1026.4
20260501205503 47 0 0.0 0.0 0.00 0.00 0.00 78 1026.2
20260501205001 48 0 0.0 0.0 0.00 0.00 0.00 74 1026.3
20260501204502 47 0 0.0 0.0 0.00 0.00 0.00 76 1026.3
20260501204002 47 0 0.0 0.0 0.00 0.00 0.00 73 1026.4
20260501203504 47 0 0.0 0.0 0.00 0.00 0.00 74 1026.4
20260501203002 47 0 0.0 0.0 0.00 0.00 0.00 74 1026.4
20260501202509 48 0 0.0 0.0 0.00 0.00 0.00 72 1026.3
20260501202002 49 0 0.0 0.0 0.00 0.00 0.00 68 1026.2
20260501201504 49 0 0.0 0.0 0.00 0.00 0.00 69 1026.2
20260501201002 50 0 0.0 0.0 0.00 0.00 0.00 69 1026.1
20260501200505 50 0 0.0 0.0 0.00 0.00 0.00 64 1026.0
20260501200003 50 0 0.0 0.0 0.00 0.00 0.00 63 1026.1
20260501195508 50 0 0.0 0.0 0.00 0.00 0.00 65 1026.2
20260501195001 51 0 0.0 0.0 0.00 0.00 0.00 65 1025.9
20260501194005 52 0 0.0 0.0 0.00 0.00 0.00 61 1025.8
20260501193506 52 0 0.0 0.0 0.00 0.00 0.00 60 1025.8
20260501193002 51 0 0.0 0.0 0.00 0.00 0.00 62 1025.8
20260501192510 51 0 0.0 0.0 0.00 0.00 0.00 63 1025.8
20260501192003 52 0 0.0 0.0 0.00 0.00 0.00 62 1025.8
20260501191502 52 0 0.0 0.0 0.00 0.00 0.00 59 1025.8
20260501191002 52 0 0.0 0.0 0.00 0.00 0.00 63 1025.8
20260501190504 52 0 0.0 0.0 0.00 0.00 0.00 63 1025.7
20260501190002 53 0 0.0 0.0 0.00 0.00 0.00 59 1025.6
20260501185508 53 0 0.0 0.0 0.00 0.00 0.00 60 1025.6
20260501185003 53 0 0.0 0.0 0.00 0.00 0.00 62 1025.6
20260501184504 53 0 0.0 0.0 0.00 0.00 0.00 63 1025.5
20260501184001 54 0 0.0 0.0 0.00 0.00 0.00 60 1025.6
20260501183504 54 0 0.0 0.0 0.00 0.00 0.00 57 1025.4
20260501183001 55 0 0.0 0.0 0.00 0.00 0.00 56 1025.3
20260501182502 56 0 0.0 0.0 0.00 0.00 0.00 54 1025.1
20260501182003 57 0 0.0 1.0 0.00 0.00 0.00 53 1024.9